| time (UTC) | temp F | wind direction | speed MPH | gust MPH | rain 1hr in | rain 24hr in | rain mn in | humidity % | barometer mb |
| 20260906223016 | 60 | 0.0 | 0.0 | 0.00 | 0.00 | 0.00 | 84 | 1021.2 | |
| 20260906222016 | 60 | 0.0 | 1.0 | 0.00 | 0.00 | 0.00 | 83 | 1021.3 | |
| 20260906221015 | 61 | 0.0 | 1.0 | 0.00 | 0.00 | 0.00 | 82 | 1021.3 | |
| 20260906220017 | 61 | 0.0 | 0.0 | 0.00 | 0.00 | 0.00 | 81 | 1021.3 | |
| 20260906215016 | 62 | 0.0 | 0.0 | 0.00 | 0.00 | 0.00 | 81 | 1021.5 | |
| 20260906214036 | 62 | 0.0 | 0.0 | 0.00 | 0.00 | 0.00 | 81 | 1021.5 | |
| 20260906213015 | 63 | 0.0 | 0.0 | 0.00 | 0.00 | 0.00 | 80 | 1021.6 | |
| 20260906212016 | 63 | 0.0 | 0.0 | 0.00 | 0.00 | 0.00 | 80 | 1021.7 | |
| 20260906211036 | 63 | 0.0 | 0.0 | 0.00 | 0.00 | 0.00 | 81 | 1021.9 | |
| 20260906210015 | 63 | 0.0 | 1.0 | 0.00 | 0.00 | 0.00 | 81 | 1021.7 | |
| 20260906205016 | 62 | 0.0 | 2.0 | 0.00 | 0.00 | 0.00 | 82 | 1021.3 | |
| 20260906204015 | 62 | 0.0 | 0.0 | 0.00 | 0.00 | 0.00 | 80 | 1021.3 | |
| 20260906203016 | 62 | 0.0 | 1.0 | 0.00 | 0.00 | 0.00 | 78 | 1021.5 | |
| 20260906202016 | 63 | 0.0 | 1.0 | 0.00 | 0.00 | 0.00 | 77 | 1021.7 | |
| 20260906201015 | 63 | 0.0 | 1.0 | 0.00 | 0.00 | 0.00 | 74 | 1021.6 | |
| 20260906200015 | 64 | 0.0 | 1.0 | 0.00 | 0.00 | 0.00 | 74 | 1021.8 | |
| 20260906195015 | 65 | 0.0 | 1.0 | 0.00 | 0.00 | 0.00 | 73 | 1021.8 | |
| 20260906194016 | 65 | 0.0 | 0.0 | 0.00 | 0.00 | 0.00 | 71 | 1021.8 | |
| 20260906193055 | 66 | 0.0 | 0.0 | 0.00 | 0.00 | 0.00 | 71 | 1022.0 | |
| 20260906192016 | 67 | 0.0 | 1.0 | 0.00 | 0.00 | 0.00 | 69 | 1022.1 | |
| 20260906191015 | 68 | 0.0 | 1.0 | 0.00 | 0.00 | 0.00 | 68 | 1022.0 | |
| 20260906190016 | 68 | 0.0 | 1.0 | 0.00 | 0.00 | 0.00 | 68 | 1022.0 | |
| 20260906185015 | 69 | 0.0 | 1.0 | 0.00 | 0.00 | 0.00 | 67 | 1022.0 | |
| 20260906184015 | 69 | 0.0 | 1.0 | 0.00 | 0.00 | 0.00 | 66 | 1021.9 | |
| 20260906183056 | 70 | 0.0 | 2.0 | 0.00 | 0.00 | 0.00 | 66 | 1021.9 | |
| 20260906182015 | 70 | 225 | 1.0 | 2.0 | 0.00 | 0.00 | 0.00 | 65 | 1021.8 |
| 20260906181018 | 70 | 0.0 | 2.0 | 0.00 | 0.00 | 0.00 | 66 | 1022.0 | |
| 20260906180016 | 70 | 203 | 1.0 | 1.0 | 0.00 | 0.00 | 0.00 | 66 | 1022.0 |
| 20260906175015 | 70 | 203 | 1.0 | 2.0 | 0.00 | 0.00 | 0.00 | 67 | 1022.2 |
| 20260906174016 | 70 | 0.0 | 1.0 | 0.00 | 0.00 | 0.00 | 69 | 1022.3 | |
| 20260906173016 | 70 | 0.0 | 1.0 | 0.00 | 0.00 | 0.00 | 69 | 1022.5 | |
| 20260906172016 | 70 | 0.0 | 1.0 | 0.00 | 0.00 | 0.00 | 69 | 1022.7 | |
| 20260906171016 | 70 | 180 | 1.0 | 3.0 | 0.00 | 0.00 | 0.00 | 68 | 1022.9 |
| 20260906170016 | 70 | 180 | 1.0 | 2.0 | 0.00 | 0.00 | 0.00 | 68 | 1023.1 |
| 20260906165015 | 70 | 180 | 1.0 | 3.0 | 0.00 | 0.00 | 0.00 | 68 | 1023.2 |
| 20260906164016 | 70 | 315 | 2.0 | 4.0 | 0.00 | 0.00 | 0.00 | 69 | 1023.2 |
| 20260906163036 | 70 | 248 | 1.0 | 4.0 | 0.00 | 0.00 | 0.00 | 69 | 1023.4 |
| 20260906162016 | 70 | 203 | 1.0 | 2.0 | 0.00 | 0.00 | 0.00 | 69 | 1023.4 |
| 20260906161036 | 70 | 0.0 | 1.0 | 0.00 | 0.00 | 0.00 | 69 | 1023.7 | |
| 20260906160016 | 70 | 158 | 1.0 | 2.0 | 0.00 | 0.00 | 0.00 | 67 | 1023.7 |
| 20260906155016 | 71 | 248 | 2.0 | 4.0 | 0.00 | 0.00 | 0.00 | 66 | 1023.8 |
| 20260906154035 | 71 | 203 | 2.0 | 5.0 | 0.00 | 0.00 | 0.00 | 64 | 1023.8 |
| 20260906153016 | 71 | 248 | 2.0 | 4.0 | 0.00 | 0.00 | 0.00 | 63 | 1024.0 |
| 20260906152017 | 72 | 225 | 2.0 | 5.0 | 0.00 | 0.00 | 0.00 | 63 | 1023.9 |
| 20260906151015 | 72 | 203 | 2.0 | 8.0 | 0.00 | 0.00 | 0.00 | 62 | 1023.9 |
| 20260906150015 | 72 | 203 | 2.0 | 5.0 | 0.00 | 0.00 | 0.00 | 61 | 1023.9 |
| 20260906145019 | 73 | 225 | 2.0 | 5.0 | 0.00 | 0.00 | 0.00 | 60 | 1024.0 |
| 20260906144016 | 74 | 225 | 2.0 | 5.0 | 0.00 | 0.00 | 0.00 | 60 | 1024.1 |
| 20260906143036 | 74 | 225 | 2.0 | 5.0 | 0.00 | 0.00 | 0.00 | 61 | 1024.0 |
| 20260906142017 | 75 | 248 | 2.0 | 6.0 | 0.00 | 0.00 | 0.00 | 61 | 1024.0 |
| 20260906141016 | 75 | 203 | 2.0 | 5.0 | 0.00 | 0.00 | 0.00 | 59 | 1024.1 |
| 20260906140015 | 76 | 203 | 2.0 | 4.0 | 0.00 | 0.00 | 0.00 | 59 | 1024.1 |
| 20260906135018 | 76 | 225 | 1.0 | 5.0 | 0.00 | 0.00 | 0.00 | 57 | 1024.3 |
| 20260906134016 | 76 | 203 | 1.0 | 4.0 | 0.00 | 0.00 | 0.00 | 58 | 1024.6 |
| 20260906133016 | 76 | 225 | 1.0 | 5.0 | 0.00 | 0.00 | 0.00 | 57 | 1024.7 |
| 20260906132016 | 76 | 225 | 2.0 | 4.0 | 0.00 | 0.00 | 0.00 | 57 | 1024.8 |
| 20260906131016 | 77 | 203 | 2.0 | 5.0 | 0.00 | 0.00 | 0.00 | 56 | 1024.8 |
| 20260906130016 | 77 | 248 | 1.0 | 3.0 | 0.00 | 0.00 | 0.00 | 55 | 1024.9 |
| 20260906125036 | 78 | 203 | 2.0 | 5.0 | 0.00 | 0.00 | 0.00 | 54 | 1024.8 |
| 20260906124016 | 78 | 225 | 3.0 | 5.0 | 0.00 | 0.00 | 0.00 | 52 | 1024.9 |
| 20260906123017 | 79 | 225 | 2.0 | 7.0 | 0.00 | 0.00 | 0.00 | 52 | 1024.9 |
| 20260906122017 | 80 | 248 | 2.0 | 5.0 | 0.00 | 0.00 | 0.00 | 53 | 1025.0 |
| 20260906121016 | 79 | 248 | 2.0 | 7.0 | 0.00 | 0.00 | 0.00 | 54 | 1025.1 |
| 20260906120017 | 79 | 248 | 3.0 | 6.0 | 0.00 | 0.00 | 0.00 | 51 | 1025.3 |
| 20260906115015 | 78 | 248 | 3.0 | 6.0 | 0.00 | 0.00 | 0.00 | 54 | 1025.4 |
| 20260906114036 | 78 | 225 | 3.0 | 6.0 | 0.00 | 0.00 | 0.00 | 53 | 1025.5 |
| 20260906113016 | 77 | 225 | 2.0 | 5.0 | 0.00 | 0.00 | 0.00 | 56 | 1025.7 |
| 20260906112057 | 76 | 225 | 2.0 | 6.0 | 0.00 | 0.00 | 0.00 | 59 | 1025.7 |
| 20260906111018 | 76 | 203 | 3.0 | 6.0 | 0.00 | 0.00 | 0.00 | 59 | 1025.8 |
| 20260906110016 | 75 | 225 | 2.0 | 5.0 | 0.00 | 0.00 | 0.00 | 61 | 1025.9 |
| 20260906105036 | 75 | 248 | 2.0 | 5.0 | 0.00 | 0.00 | 0.00 | 60 | 1025.9 |
| 20260906104016 | 75 | 203 | 2.0 | 8.0 | 0.00 | 0.00 | 0.00 | 61 | 1026.1 |
| 20260906103016 | 74 | 203 | 2.0 | 4.0 | 0.00 | 0.00 | 0.00 | 62 | 1026.1 |
| 20260906102016 | 73 | 225 | 2.0 | 6.0 | 0.00 | 0.00 | 0.00 | 63 | 1026.1 |
| 20260906101036 | 73 | 248 | 2.0 | 6.0 | 0.00 | 0.00 | 0.00 | 64 | 1026.2 |
| 20260906100016 | 73 | 203 | 2.0 | 5.0 | 0.00 | 0.00 | 0.00 | 65 | 1026.2 |
| 20260906095017 | 72 | 203 | 2.0 | 5.0 | 0.00 | 0.00 | 0.00 | 67 | 1026.1 |
| 20260906094016 | 71 | 248 | 2.0 | 6.0 | 0.00 | 0.00 | 0.00 | 67 | 1026.2 |
| 20260906093016 | 71 | 248 | 3.0 | 6.0 | 0.00 | 0.00 | 0.00 | 69 | 1026.3 |
| 20260906092016 | 70 | 225 | 2.0 | 5.0 | 0.00 | 0.00 | 0.00 | 70 | 1026.4 |
| 20260906091036 | 70 | 225 | 2.0 | 5.0 | 0.00 | 0.00 | 0.00 | 72 | 1026.4 |
| 20260906090017 | 69 | 248 | 2.0 | 5.0 | 0.00 | 0.00 | 0.00 | 73 | 1026.5 |
| 20260906085016 | 67 | 248 | 2.0 | 9.0 | 0.00 | 0.00 | 0.00 | 75 | 1026.5 |
| 20260906084016 | 66 | 225 | 3.0 | 6.0 | 0.00 | 0.00 | 0.00 | 79 | 1026.6 |
| 20260906083036 | 65 | 248 | 1.0 | 4.0 | 0.00 | 0.00 | 0.00 | 86 | 1026.5 |
| 20260906082016 | 64 | 203 | 1.0 | 3.0 | 0.00 | 0.00 | 0.00 | 89 | 1026.7 |
| 20260906081036 | 63 | 203 | 1.0 | 3.0 | 0.00 | 0.00 | 0.00 | 91 | 1026.7 |
| 20260906080017 | 62 | 225 | 1.0 | 3.0 | 0.00 | 0.00 | 0.00 | 93 | 1026.8 |
| 20260906075016 | 61 | 293 | 1.0 | 4.0 | 0.00 | 0.00 | 0.00 | 95 | 1026.8 |
| 20260906074016 | 60 | 225 | 1.0 | 3.0 | 0.00 | 0.00 | 0.00 | 96 | 1026.8 |
| 20260906073016 | 59 | 0.0 | 0.0 | 0.00 | 0.00 | 0.00 | 96 | 1026.9 | |
| 20260906072016 | 58 | 0.0 | 0.0 | 0.00 | 0.00 | 0.00 | 96 | 1027.0 | |
| 20260906071036 | 57 | 0.0 | 0.0 | 0.00 | 0.00 | 0.00 | 96 | 1027.0 | |
| 20260906070016 | 56 | 0.0 | 0.0 | 0.00 | 0.00 | 0.00 | 96 | 1027.2 | |
| 20260906065016 | 55 | 0.0 | 0.0 | 0.00 | 0.00 | 0.00 | 96 | 1027.2 | |
| 20260906064016 | 54 | 0.0 | 0.0 | 0.00 | 0.00 | 0.00 | 95 | 1027.4 | |
| 20260906063036 | 54 | 0.0 | 0.0 | 0.00 | 0.00 | 0.00 | 94 | 1027.4 | |
| 20260906062016 | 54 | 0.0 | 0.0 | 0.00 | 0.00 | 0.00 | 94 | 1027.4 | |
| 20260906061036 | 54 | 0.0 | 0.0 | 0.00 | 0.00 | 0.00 | 93 | 1027.5 | |
| 20260906060016 | 54 | 0.0 | 0.0 | 0.00 | 0.00 | 0.00 | 93 | 1027.5 | |
| 20260906055016 | 54 | 0.0 | 0.0 | 0.00 | 0.00 | 0.00 | 93 | 1027.6 | |
| 20260906054016 | 55 | 0.0 | 0.0 | 0.00 | 0.00 | 0.00 | 94 | 1027.4 | |
| 20260906053016 | 55 | 0.0 | 0.0 | 0.00 | 0.00 | 0.00 | 94 | 1027.5 | |
| 20260906052016 | 55 | 0.0 | 0.0 | 0.00 | 0.00 | 0.00 | 94 | 1027.6 | |
| 20260906051016 | 55 | 0.0 | 0.0 | 0.00 | 0.00 | 0.00 | 94 | 1027.5 | |
| 20260906050016 | 54 | 0.0 | 0.0 | 0.00 | 0.00 | 0.00 | 94 | 1027.7 | |
| 20260906045016 | 54 | 0.0 | 0.0 | 0.00 | 0.00 | 0.00 | 94 | 1027.7 | |
| 20260906044016 | 54 | 0.0 | 0.0 | 0.00 | 0.00 | 0.00 | 94 | 1027.8 | |
| 20260906043016 | 54 | 0.0 | 0.0 | 0.00 | 0.00 | 0.00 | 94 | 1027.8 | |
| 20260906042016 | 54 | 0.0 | 0.0 | 0.00 | 0.00 | 0.00 | 94 | 1027.9 | |
| 20260906041016 | 54 | 0.0 | 0.0 | 0.00 | 0.00 | 0.00 | 94 | 1028.1 | |
| 20260906040036 | 54 | 0.0 | 0.0 | 0.00 | 0.00 | 0.00 | 94 | 1028.1 | |
| 20260906035016 | 54 | 0.0 | 0.0 | 0.00 | 0.00 | 0.00 | 94 | 1028.3 | |
| 20260906034016 | 54 | 0.0 | 0.0 | 0.00 | 0.00 | 0.00 | 94 | 1028.3 | |
| 20260906033016 | 54 | 0.0 | 0.0 | 0.00 | 0.00 | 0.00 | 94 | 1028.3 | |
| 20260906032016 | 54 | 0.0 | 0.0 | 0.00 | 0.00 | 0.00 | 94 | 1028.5 | |
| 20260906031017 | 54 | 0.0 | 0.0 | 0.00 | 0.00 | 0.00 | 93 | 1028.3 | |
| 20260906030036 | 54 | 0.0 | 0.0 | 0.00 | 0.00 | 0.00 | 93 | 1028.3 | |
| 20260906025037 | 54 | 0.0 | 0.0 | 0.00 | 0.00 | 0.00 | 94 | 1028.4 | |
| 20260906024016 | 53 | 0.0 | 0.0 | 0.00 | 0.00 | 0.00 | 94 | 1028.4 | |
| 20260906023016 | 53 | 0.0 | 0.0 | 0.00 | 0.00 | 0.00 | 94 | 1028.5 | |
| 20260906022016 | 52 | 0.0 | 0.0 | 0.00 | 0.00 | 0.00 | 93 | 1028.7 | |
| 20260906021016 | 52 | 0.0 | 0.0 | 0.00 | 0.00 | 0.00 | 92 | 1029.0 | |
| 20260906020017 | 52 | 0.0 | 0.0 | 0.00 | 0.00 | 0.00 | 92 | 1029.1 | |
| 20260906015036 | 52 | 0.0 | 0.0 | 0.00 | 0.00 | 0.00 | 92 | 1029.3 | |
| 20260906014016 | 52 | 0.0 | 0.0 | 0.00 | 0.00 | 0.00 | 92 | 1029.3 | |
| 20260906013016 | 52 | 0.0 | 0.0 | 0.00 | 0.00 | 0.00 | 91 | 1029.2 | |
| 20260906012017 | 53 | 0.0 | 0.0 | 0.00 | 0.00 | 0.00 | 91 | 1029.4 | |
| 20260906011017 | 53 | 0.0 | 0.0 | 0.00 | 0.00 | 0.00 | 92 | 1029.4 | |
| 20260906010017 | 53 | 0.0 | 0.0 | 0.00 | 0.00 | 0.00 | 92 | 1029.5 | |
| 20260906005016 | 53 | 0.0 | 0.0 | 0.00 | 0.00 | 0.00 | 92 | 1029.6 | |
| 20260906004017 | 54 | 0.0 | 0.0 | 0.00 | 0.00 | 0.00 | 92 | 1029.6 | |
| 20260906003017 | 54 | 0.0 | 0.0 | 0.00 | 0.00 | 0.00 | 92 | 1029.5 | |
| 20260906002016 | 54 | 0.0 | 0.0 | 0.00 | 0.00 | 0.00 | 92 | 1029.7 | |
| 20260906001057 | 54 | 0.0 | 0.0 | 0.00 | 0.00 | 0.00 | 92 | 1029.8 | |
| 20260906000036 | 54 | 0.0 | 0.0 | 0.00 | 0.00 | 0.00 | 91 | 1029.8 | |
| 20260905235016 | 54 | 0.0 | 0.0 | 0.00 | 0.00 | 0.00 | 91 | 1029.9 | |
| 20260905234037 | 54 | 0.0 | 0.0 | 0.00 | 0.00 | 0.00 | 91 | 1030.0 | |
| 20260905233016 | 54 | 0.0 | 0.0 | 0.00 | 0.00 | 0.00 | 91 | 1029.9 | |
| 20260905232016 | 54 | 0.0 | 0.0 | 0.00 | 0.00 | 0.00 | 90 | 1029.8 | |
| 20260905231019 | 54 | 0.0 | 0.0 | 0.00 | 0.00 | 0.00 | 90 | 1029.6 | |
| 20260905230116 | 54 | 0.0 | 0.0 | 0.00 | 0.00 | 0.00 | 90 | 1029.5 | |
| 20260905225017 | 54 | 0.0 | 0.0 | 0.00 | 0.00 | 0.00 | 90 | 1029.7 |